This demonstration page uses our WeatherBlox Daily Observations layout. Learn more.

Left ArrowRight Arrow

36.19886, -115.1175

Hourly Observations for November 23, 2015

Temp ( °F °C ) Dew Point ( °F °C ) Humidity (%) Winds ( mph kmh ) Pressure ( in mb ) Visibility ( mi km ) Precip ( " mm )
12:53 am 00:53 Clear 46 7.8 17 -8.3 31 31 NW 5 7 30.07 1018 10 16 0.00 0.00
1:53 am 01:53 Clear 43 6.1 17 -8.3 35 35 NW 7 11 30.07 1018 10 16 0.00 0.00
2:53 am 02:53 Clear 45 7.2 15 -9.4 30 30 WNW 7 11 30.07 1018 10 16 0.00 0.00
3:53 am 03:53 Clear 43 6.1 15 -9.4 32 32 NW 8 13 30.06 1018 10 16 0.00 0.00
4:53 am 04:53 Clear 43 6.1 13 -10.6 29 29 Calm 30.07 1018 10 16 0.00 0.00
5:53 am 05:53 Clear 41 5 17 -8.3 38 38 W 5 7 30.08 1019 10 16 0.00 0.00
6:53 am 06:53 Sunny 42 5.6 18 -7.8 38 38 Calm 30.09 1019 8 13 0.00 0.00
7:53 am 07:53 Sunny 48 8.9 17 -8.3 29 29 Calm 30.09 1019 10 16 0.00 0.00
8:53 am 08:53 Sunny 52 11.1 15 -9.4 23 23 Calm 30.09 1019 10 16 0.00 0.00
9:53 am 09:53 Sunny 57 13.9 15 -9.4 19 19 SSE 6 9 30.08 1019 10 16 0.00 0.00
10:53 am 10:53 Sunny 57 13.9 12 -11.1 17 17 SE 5 7 30.06 1018 10 16 0.00 0.00
11:53 am 11:53 Sunny 61 16.1 13 -10.6 15 15 SE 9 15 30.02 1017 10 16 0.00 0.00
12:53 pm 12:53 Sunny 63 17.2 11 -11.7 13 13 SE 8 13 29.98 1015 10 16 0.00 0.00
1:53 pm 13:53 Sunny 63 17.2 12 -11.1 13 13 SE 5 7 29.97 1015 10 16 0.00 0.00
2:53 pm 14:53 Sunny 64 17.8 12 -11.1 13 13 SE 7 11 29.94 1014 10 16 0.00 0.00
3:53 pm 15:53 Sunny 63 17.2 13 -10.6 14 14 E 7 11 29.94 1014 10 16 0.00 0.00
4:53 pm 16:53 Clear 59 15 14 -10 17 17 E 6 9 29.94 1014 10 16 0.00 0.00
5:53 pm 17:53 Clear 59 15 14 -10 17 17 Calm 29.94 1014 10 16 0.00 0.00
6:53 pm 18:53 Clear 54 12.2 18 -7.8 24 24 NW 5 7 29.96 1015 10 16 0.00 0.00
7:53 pm 19:53 Clear 51 10.6 20 -6.7 29 29 NW 7 11 29.96 1015 10 16 0.00 0.00
8:53 pm 20:53 Clear 50 10 19 -7.2 29 29 NW 6 9 29.97 1015 10 16 0.00 0.00
9:53 pm 21:53 Clear 49 9.4 19 -7.2 31 31 N 5 7 29.96 1015 10 16 0.00 0.00
10:53 pm 22:53 Clear 46 7.8 20 -6.7 35 35 NNW 5 7 29.96 1015 10 16 0.00 0.00
11:53 pm 23:53 Clear 45 7.2 19 -7.2 35 35 NW 5 7 29.95 1014 10 16 0.00 0.00

Powered by AerisWeather